{"data":{"norad_id":53977,"intl_designator":"2022-125P","name":"STARLINK-5094","alt_names":[],"object_type":"PAYLOAD","status":"ACTIVE","operator":null,"country":"US","launch_date":"2022-10-05","launch_site_code":"AFWTR","launch_vehicle":null,"mission":null,"orbit_class":"UNKNOWN","rcs_meters":null,"size_class":null,"mass_kg":null,"dimensions":null,"purposes":["comms"],"wikipedia_slug":null,"has_3d_model":false,"image_url":null,"decayed_at":null,"tle_current":{"epoch":"2026-05-24T22:50:10.071744Z","epoch_age_seconds":72617,"freshness":"FRESH","line1":"1 53977U 22125P   26144.95150546  .00002087  00000+0  14924-3 0  9994","line2":"2 53977  53.2123 236.8793 0001623  88.4022 271.7156 15.08826276200908","mean_motion":15.08826276,"eccentricity":0.0001623,"inclination_deg":53.2123,"raan_deg":236.8793,"arg_perigee_deg":88.4022,"mean_anomaly_deg":271.7156,"bstar":0.00014924,"rev_number":20090,"period_min":95.438422759811,"perigee_km":538.66255926423,"apogee_km":540.90811685517,"semimajor_km":6917.9223380597,"source":"CELESTRAK","updated_at":"2026-05-25T13:38:17.619243Z"}}}